Weather History for Buckland, AK

Change the Weather History Date:

Monday, December 23, 2013

  Actual Average (PASK) Record (PASK)
Temperature  
Mean Temperature -6 °F -  
Max Temperature 1 °F 0 °F 21 °F (2008)
Min Temperature -13 °F -9 °F -34 °F (2011)
Degree Days  
Heating Degree Days 71    
Moisture  
Dew Point -11 °F    
Average Humidity 79    
Maximum Humidity 100    
Minimum Humidity 41    
Precipitation  
Precipitation 0.00 in - - ()
Sea Level Pressure  
Sea Level Pressure 30.11 in    
Wind  
Wind Speed 4 mph (SSW)    
Max Wind Speed 10 mph    
Max Gust Speed -    
Visibility 9 miles    
Events      
Averages and records for this station are not official NWS values.
T = Trace of Precipitation, MM = Missing Value Source: NWS Daily Summary

Daily Weather History Graph

Daily Weather History Graph

Search for Another Location

Airport:

Trip Planner

Search our weather history database for the weather conditions in past years. The results will help you decide how hot, cold, wet, or windy it might be!

Date:

Astronomy

Dec. 23, 2013 Rise Set
Actual Time 12:19 PM AKST 3:08 PM AKST
Civil Twilight 10:39 AM AKST 4:48 PM AKST
Nautical Twilight 9:22 AM AKST 6:05 PM AKST
Astronomical Twilight 8:17 AM AKST 7:10 PM AKST
Moon No Moon Rise 12:51 PM AKST (12/23)
Length of Visible Light 6h 09m
Length of Day
2h 48m
Waning Gibbous, 66% of the Moon is Illuminated
Dec 23
Waning Gibbous
Dec 25
Last Quarter
Jan 1
New
Jan 7
First Quarter
Jan 15
Full

Hourly Weather History & Observations

Time (AKST) Temp. Windchill Dew Point Humidity Pressure Visibility Wind Dir Wind Speed Gust Speed Precip Events Conditions
12:16 AM -7.6 °F -18.8 °F -14.8 °F 71% 29.91 in 10.0 mi SE 4.6 mph - N/A   Overcast
12:36 AM -7.6 °F -18.8 °F -11.2 °F 84% 29.91 in 10.0 mi SSE 4.6 mph - N/A   Overcast
12:56 AM -7.6 °F -18.8 °F -14.8 °F 71% 29.92 in 10.0 mi SSE 4.6 mph - N/A   Overcast
1:16 AM -9.4 °F -20.9 °F -13.0 °F 84% 29.92 in 10.0 mi SE 4.6 mph - N/A   Mostly Cloudy
1:36 AM -9.4 °F -18.6 °F -16.6 °F 71% 29.93 in 10.0 mi SSE 3.5 mph - N/A   Partly Cloudy
1:56 AM -11.2 °F -23.0 °F -16.6 °F 77% 29.93 in 10.0 mi SSE 4.6 mph - N/A   Clear
2:16 AM -11.2 °F - -16.6 °F 77% 29.94 in 10.0 mi Calm Calm - N/A   Clear
2:36 AM -11.2 °F - -13.0 °F 92% 29.95 in 10.0 mi Calm Calm - N/A   Scattered Clouds
2:56 AM -13.0 °F - -20.2 °F 70% 29.96 in 10.0 mi Calm Calm - N/A   Overcast
3:16 AM -13.0 °F - -14.8 °F 92% 29.96 in 10.0 mi Calm Calm - N/A   Overcast
3:36 AM -11.2 °F - -16.6 °F 77% 29.97 in 10.0 mi Calm Calm - N/A   Mostly Cloudy
3:56 AM -11.2 °F - -16.6 °F 77% 29.97 in 10.0 mi Calm Calm - N/A   Overcast
4:16 AM -11.2 °F - -14.8 °F 84% 29.98 in 10.0 mi Calm Calm - N/A   Overcast
4:36 AM -11.2 °F -23.0 °F -18.4 °F 70% 29.99 in 9.0 mi South 4.6 mph - N/A   Overcast
4:56 AM -7.6 °F - -9.4 °F 92% 30.00 in 9.0 mi Calm Calm - N/A   Overcast
5:16 AM -7.6 °F - -14.8 °F 71% 30.00 in 10.0 mi Calm Calm - N/A   Overcast
5:36 AM -7.6 °F - -11.2 °F 84% 30.01 in 10.0 mi Calm Calm - N/A   Overcast
5:56 AM -5.8 °F - -11.2 °F 77% 30.01 in 10.0 mi Calm Calm - N/A   Overcast
6:16 AM -5.8 °F -14.5 °F -9.4 °F 84% 30.02 in 10.0 mi ESE 3.5 mph - N/A   Overcast
6:36 AM -7.6 °F -16.5 °F -14.8 °F 71% 30.03 in 10.0 mi SE 3.5 mph - N/A   Overcast
6:56 AM -9.4 °F -20.9 °F -14.8 °F 77% 30.03 in 10.0 mi South 4.6 mph - N/A   Mostly Cloudy
7:16 AM -9.4 °F -20.9 °F -18.4 °F 65% 30.03 in 10.0 mi SE 4.6 mph - N/A   Partly Cloudy
7:36 AM -9.4 °F -18.6 °F -22.0 °F 54% 30.04 in 10.0 mi ESE 3.5 mph - N/A   Clear
7:56 AM -9.4 °F - -27.4 °F 41% 30.04 in 9.0 mi Calm Calm - N/A   Clear
8:16 AM -9.4 °F -18.6 °F -9.4 °F 100% 30.05 in 10.0 mi East 3.5 mph - N/A   Clear
8:36 AM -11.2 °F -20.6 °F -20.2 °F 64% 30.06 in 10.0 mi SE 3.5 mph - N/A   Scattered Clouds
8:56 AM -11.2 °F - -11.2 °F 100% 30.07 in 10.0 mi Calm Calm - N/A   Mostly Cloudy
9:16 AM -11.2 °F -23.0 °F -20.2 °F 64% 30.08 in 10.0 mi SE 4.6 mph - N/A   Overcast
9:36 AM -11.2 °F -24.8 °F -16.6 °F 77% 30.08 in 10.0 mi SSE 5.8 mph - N/A   Overcast
9:56 AM -13.0 °F - -20.2 °F 70% 30.09 in 10.0 mi Calm Calm - N/A   Overcast
10:16 AM -9.4 °F - -9.4 °F 100% 30.10 in 10.0 mi Calm Calm - N/A   Overcast
10:36 AM -7.6 °F -20.6 °F -14.8 °F 71% 30.11 in 7.0 mi SSE 5.8 mph - N/A   Overcast
10:56 AM -5.8 °F - -9.4 °F 84% 30.11 in 10.0 mi Calm Calm - N/A   Overcast
11:16 AM -2.2 °F - -5.8 °F 85% 30.12 in 9.0 mi Calm Calm - N/A   Overcast
11:36 AM -0.4 °F - -7.6 °F 72% 30.12 in 10.0 mi Calm Calm - N/A   Overcast
11:56 AM -0.4 °F -8.3 °F -9.4 °F 66% 30.12 in 9.0 mi SE 3.5 mph - N/A   Overcast
12:16 PM -0.4 °F -10.4 °F - N/A% 30.14 in 10.0 mi South 4.6 mph - N/A   Overcast
12:36 PM 1.4 °F -8.3 °F -7.6 °F 66% 30.14 in 9.0 mi SSW 4.6 mph - N/A   Overcast
12:56 PM 1.4 °F -11.3 °F -13.0 °F 51% 30.15 in 8.0 mi SW 6.9 mph - N/A   Overcast
1:16 PM 1.4 °F -13.5 °F -2.2 °F 85% 30.16 in 9.0 mi WSW 9.2 mph - N/A   Overcast
1:36 PM 1.4 °F -12.5 °F -0.4 °F 92% 30.16 in 8.0 mi SW 8.1 mph - N/A   Overcast
1:56 PM 1.4 °F -11.3 °F -0.4 °F 92% 30.16 in 8.0 mi WSW 6.9 mph - N/A   Overcast
2:16 PM 1.4 °F -8.3 °F -4.0 °F 78% 30.17 in 7.0 mi WSW 4.6 mph - N/A   Overcast
2:36 PM 1.4 °F -11.3 °F -4.0 °F 78% 30.17 in 7.0 mi WSW 6.9 mph - N/A   Overcast
2:56 PM -0.4 °F -13.4 °F -4.0 °F 85% 30.18 in 8.0 mi West 6.9 mph - N/A   Mostly Cloudy
3:16 PM -2.2 °F -15.6 °F -7.6 °F 78% 30.19 in 10.0 mi West 6.9 mph - N/A   Clear
3:36 PM -0.4 °F -14.7 °F -4.0 °F 85% 30.18 in 10.0 mi West 8.1 mph - N/A   Mostly Cloudy
3:56 PM -0.4 °F -15.7 °F -5.8 °F 78% 30.19 in 8.0 mi West 9.2 mph - N/A   Overcast
4:16 PM -0.4 °F -13.4 °F -5.8 °F 78% 30.19 in 5.0 mi West 6.9 mph - N/A   Mostly Cloudy
4:36 PM -0.4 °F -15.7 °F -5.8 °F 78% 30.19 in 2.5 mi WSW 9.2 mph - N/A   Overcast
4:56 PM -0.4 °F -16.7 °F -5.8 °F 78% 30.20 in 3.0 mi West 10.4 mph - N/A   Overcast
5:16 PM -0.4 °F -15.7 °F -5.8 °F 78% 30.20 in 7.0 mi WSW 9.2 mph - N/A   Overcast
5:36 PM -2.2 °F -18.0 °F -7.6 °F 78% 30.21 in 4.0 mi WSW 9.2 mph - N/A   Overcast
5:56 PM -2.2 °F -12.5 °F -7.6 °F 78% 30.21 in 4.0 mi WSW 4.6 mph - N/A   Overcast
6:16 PM -2.2 °F - -7.6 °F 78% 30.21 in 5.0 mi Calm Calm - N/A   Overcast
6:36 PM -2.2 °F - -5.8 °F 85% 30.22 in 6.0 mi Calm Calm - N/A   Overcast
6:56 PM -2.2 °F - -7.6 °F 78% 30.22 in 10.0 mi Calm Calm - N/A   Overcast
7:16 PM -4.0 °F -19.0 °F -4.0 °F 100% 30.22 in 8.0 mi West 8.1 mph - N/A   Mostly Cloudy
7:36 PM -5.8 °F -14.5 °F -18.4 °F 55% 30.23 in 10.0 mi NW 3.5 mph - N/A   Clear
7:56 PM -5.8 °F -19.9 °F -9.4 °F 84% 30.23 in 8.0 mi WNW 6.9 mph - N/A   Partly Cloudy
8:16 PM -2.2 °F -16.8 °F -2.2 °F 100% 30.24 in 10.0 mi WNW 8.1 mph - N/A   Mostly Cloudy
8:36 PM -4.0 °F -19.0 °F -14.8 °F 60% 30.24 in 10.0 mi WNW 8.1 mph - N/A   Mostly Cloudy
8:56 PM -5.8 °F -22.4 °F -5.8 °F 100% 30.25 in 8.0 mi West 9.2 mph - N/A   Partly Cloudy
9:16 PM -5.8 °F - -16.6 °F 60% 30.25 in 10.0 mi Calm Calm - N/A   Clear
9:36 PM -4.0 °F - -4.0 °F 100% 30.25 in 10.0 mi Calm Calm - N/A   Clear
9:56 PM -5.8 °F - -13.0 °F 71% 30.25 in 10.0 mi Calm Calm - N/A   Partly Cloudy
10:16 PM -7.6 °F -18.8 °F -11.2 °F 84% 30.26 in 10.0 mi East 4.6 mph - N/A   Clear
10:36 PM -9.4 °F - -11.2 °F 92% 30.26 in 10.0 mi Calm Calm - N/A   Clear
10:56 PM -9.4 °F - -16.6 °F 71% 30.27 in 10.0 mi Calm Calm - N/A   Mostly Cloudy
11:16 PM -7.6 °F - -7.6 °F 100% 30.27 in 8.0 mi Calm Calm - N/A   Overcast
11:36 PM -9.4 °F -22.7 °F -20.2 °F 59% 30.28 in 10.0 mi ESE 5.8 mph - N/A   Mostly Cloudy
11:56 PM -9.4 °F -20.9 °F -9.4 °F 100% 30.29 in 10.0 mi ESE 4.6 mph - N/A   Overcast